Fort Nelson, British Columbia

10:22 AM PDT on June 28, 2017 (GMT -0700)
Fort Nelson

Weather History for CYYE - October, 2012

Change the Weather History Date:

Saturday, October 27, 2012

  Actual Average Record
Temperature  
Mean Temperature 13 °F -  
Max Temperature 16 °F 18 °F 51 °F (2003)
Min Temperature 10 °F 3 °F 8 °F (2004)
Degree Days  
Heating Degree Days 52    
Moisture  
Dew Point 9 °F    
Average Humidity 81    
Maximum Humidity 92    
Minimum Humidity 68    
Precipitation  
Precipitation 0.00 in 0.03 in - ()
Sea Level Pressure  
Sea Level Pressure 30.31 in    
Wind  
Wind Speed 2 mph ()    
Max Wind Speed 4 mph    
Max Gust Speed -    
Visibility 11.8 miles    
Events Snow    
Averages and records for this station are not official NWS values.
T = Trace of Precipitation, MM = Missing Value Source: Averaged Metar Reports

Daily Weather History Graph

Daily Weather History Graph

Search for Another Location

Airport or City:

Trip Planner

Search our weather history database for the weather conditions in past years. The results will help you decide how hot, cold, wet, or windy it might be!

Date:

Astronomy

Oct. 27, 2012 Rise Set
Actual Time 8:17 AM PDT 5:30 PM PDT
Civil Twilight 7:34 AM PDT 6:12 PM PDT
Nautical Twilight 6:47 AM PDT 6:59 PM PDT
Astronomical Twilight 6:00 AM PDT 7:46 PM PDT
Moon 4:31 PM PDT (10/27) 5:59 AM PDT (10/27)
Length of Visible Light 10h 37m
Length of Day
9h 12m
Waxing Gibbous, 96% of the Moon is Illuminated
Oct 27
Waxing Gibbous
Oct 29
Full
Nov 6
Last Quarter
Nov 13
New
Nov 20
First Quarter

Hourly Weather History & Observations

Time (PDT) Temp. Windchill Dew Point Humidity Pressure Visibility Wind Dir Wind Speed Gust Speed Precip Events Conditions
12:00 AM 14.0 °F - 8.6 °F 79% 30.41 in 15.0 mi South 2.3 mph - N/A Snow Light Snow
2:00 AM 14.0 °F 8.2 °F 8.6 °F 79% 30.40 in 15.0 mi South 3.5 mph - N/A Snow Light Snow
3:00 AM 14.0 °F 8.2 °F 8.6 °F 79% 30.39 in 15.0 mi SSE 3.5 mph - N/A Snow Light Snow
4:00 AM 12.2 °F - 8.6 °F 85% 30.38 in 15.0 mi Calm Calm - N/A Snow Light Snow
5:00 AM 13 °F - 9 °F 76% 30.38 in 15 mi SSE 2.3 mph - - Snow Light Snow
5:00 AM 12.2 °F - 8.6 °F 85% 30.38 in 15.0 mi SSE 2.3 mph - N/A Snow Light Snow
6:00 AM 12.2 °F 6.1 °F 8.6 °F 85% 30.37 in 15.0 mi WSW 3.5 mph - N/A Snow Light Snow
7:00 AM 12.2 °F 6.1 °F 8.6 °F 85% 30.37 in 15.0 mi SW 3.5 mph - N/A Snow Light Snow
8:00 AM 12.2 °F - 8.6 °F 85% 30.36 in 15.0 mi South 2.3 mph - N/A Snow Light Snow
9:00 AM 12.2 °F - 8.6 °F 85% 30.35 in 15.0 mi SE 2.3 mph - N/A Snow Light Snow
10:00 AM 12.2 °F - 8.6 °F 85% 30.34 in 15.0 mi SSE 2.3 mph - N/A Snow Light Snow
11:00 AM 13 °F - 8 °F 70% 30.33 in 15 mi WSW 2.3 mph - - Snow Light Snow
11:00 AM 14.0 °F - 8.6 °F 79% 30.33 in 15.0 mi WSW 2.3 mph - N/A Snow Light Snow
12:00 PM 14.0 °F - 8.6 °F 79% 30.32 in 15.0 mi ENE 2.3 mph - N/A Snow Light Snow
1:00 PM 14.0 °F - 8.6 °F 79% 30.31 in 15.0 mi Calm Calm - N/A Snow Light Snow
2:00 PM 14.0 °F - 8.6 °F 79% 30.30 in 15.0 mi Calm Calm - N/A Snow Light Snow
3:00 PM 15.8 °F - 8.6 °F 73% 30.29 in 15.0 mi Calm Calm - N/A Snow Light Snow
4:00 PM 15.8 °F - 8.6 °F 73% 30.28 in 10.0 mi NW 2.3 mph - N/A Snow Light Snow
5:00 PM 15 °F - 9 °F 68% 30.27 in 6 mi Calm Calm - - Snow Light Snow
5:00 PM 15.8 °F - 8.6 °F 73% 30.27 in 6.0 mi Calm Calm - N/A Snow Light Snow
6:00 PM 14.0 °F - 10.4 °F 86% 30.26 in 6.0 mi Calm Calm - N/A Snow Light Snow
7:00 PM 12.2 °F - 10.4 °F 92% 30.24 in 6.0 mi West 2.3 mph - N/A Snow Light Snow
8:00 PM 10.4 °F - 8.6 °F 92% 30.23 in 6.0 mi West 2.3 mph - N/A Snow Light Snow
9:00 PM 10.4 °F - 6.8 °F 85% 30.22 in 6.0 mi West 2.3 mph - N/A Snow Light Snow
10:00 PM 10.4 °F 4.0 °F 6.8 °F 85% 30.21 in 6.0 mi WSW 3.5 mph - N/A Snow Light Snow
11:00 PM 11 °F - 8 °F 80% 30.20 in 6 mi Calm Calm - - Snow Light Snow
11:00 PM 12.2 °F - 8.6 °F 85% 30.20 in 6.0 mi Calm Calm - N/A Snow Light Snow